sat.trackr.live / text

‹ back to catalog

QIANFAN-16

NORAD 60394 · 2024-140R

PAYLOAD ACTIVE UNKNOWN

§ Identity

Operator
Country
PRC
Launch date
2024-08-06
Launch site
TAISC
Launch vehicle
Mass (kg)
RCS (m²)

External: N2YO · Heavens-Above · Gunter

§ Orbital elements

Epoch: 2026-05-25T02:55:37.852032Z

Period
106.59 min
Inclination
88.9714°
Eccentricity
0.0016664
Mean motion
13.51005933 rev/d
Perigee alt
1,056.2 km
Apogee alt
1,081.0 km
Semi-major
7,446.7 km
B*
1.1185e-4
RAAN
282.4337°
Arg perigee
100.8500°
Mean anomaly
259.4527°
Rev number
8,923

§ Raw data

QIANFAN-161 60394U 24140R   26145.12196588  .00000085  00000+0  11185-3 0  99922 60394  88.9714 282.4337 0016664 100.8500 259.4527 13.51005933 89233

JSON: /api/v1/satellites/60394 · /tle

For live sub-satellite position, see the globe view (requires WebGL).

§ Visibility from observer

Set your observer location to see the next 7 days of passes ≥ 10°. The values pass through the URL so the page stays shareable.

No JS? Fill the form by hand. The geolocation button needs JavaScript.